Los Angeles Downtown, CA

10:48 AM PDT on October 17, 2017 (GMT -0700)
Los Angeles Downtown

Weather History for KCQT - October, 2013

Change the Weather History Date:

Friday, October 18, 2013

  Actual Average Record
Temperature  
Mean Temperature 70 °F 68 °F  
Max Temperature 83 °F 78 °F 97 °F (1940)
Min Temperature 57 °F 58 °F 44 °F (1881)
Degree Days  
Heating Degree Days 0 1  
Month to date heating degree days 9 1  
Since 1 July heating degree days 9 3  
Cooling Degree Days 5 4  
Month to date cooling degree days 85 89  
Year to date cooling degree days 1152 1167  
Growing Degree Days 19 (Base 50)    
Moisture  
Dew Point 49 °F    
Average Humidity 54    
Maximum Humidity 84    
Minimum Humidity 23    
Precipitation  
Precipitation 0.00 in 0.02 in 0.48 in (1932)
Month to date precipitation 0.04 0.33  
Year to date precipitation 2.76 11.23  
Since 1 July precipitation 0.13  
Sea Level Pressure  
Sea Level Pressure 29.96 in    
Wind  
Wind Speed 1 mph (West)    
Max Wind Speed 8 mph    
Max Gust Speed 12 mph    
Visibility 10 miles    
Events      
T = Trace of Precipitation, MM = Missing Value Source: NWS Daily Summary

Daily Weather History Graph

Daily Weather History Graph

Search for Another Location

Airport or City:

Trip Planner

Search our weather history database for the weather conditions in past years. The results will help you decide how hot, cold, wet, or windy it might be!

Date:

Astronomy

Oct. 18, 2013 Rise Set
Actual Time 7:00 AM PDT 6:14 PM PDT
Civil Twilight 6:35 AM PDT 6:40 PM PDT
Nautical Twilight 6:06 AM PDT 7:09 PM PDT
Astronomical Twilight 5:37 AM PDT 7:38 PM PDT
Moon 6:08 PM PDT (10/18) 6:41 AM PDT (10/18)
Length of Visible Light 12h 04m
Length of Day
11h 13m
Full, 100% of the Moon is Illuminated
Oct 18
Full
Oct 18
Full
Oct 26
Last Quarter
Nov 3
New
Nov 9
First Quarter

Hourly Weather History & Observations

Time (PDT) Temp. Dew Point Humidity Pressure Visibility Wind Dir Wind Speed Gust Speed Precip Events Conditions
12:47 AM 61.0 °F 55.0 °F 81% 29.94 in 10.0 mi Calm Calm - N/A   Clear
1:47 AM 61.0 °F 52.0 °F 72% 29.95 in 10.0 mi Calm Calm - N/A   Clear
2:47 AM 59.0 °F 53.1 °F 81% 29.96 in 10.0 mi Calm Calm - N/A   Clear
3:47 AM 57.9 °F 52.0 °F 81% 29.96 in 10.0 mi Calm Calm - N/A   Clear
4:47 AM 57.0 °F 48.0 °F 72% 29.96 in 7.0 mi Calm Calm - N/A   Clear
5:47 AM 57.0 °F 45.0 °F 64% 29.96 in 10.0 mi Calm Calm - N/A   Clear
6:47 AM 57.0 °F 42.1 °F 57% 29.97 in 10.0 mi Calm Calm - N/A   Clear
7:47 AM 59.0 °F 41.0 °F 51% 29.98 in 10.0 mi Calm Calm - N/A   Clear
8:47 AM 66.0 °F 39.9 °F 38% 29.99 in 10.0 mi Calm Calm - N/A   Clear
9:47 AM 72.0 °F 37.0 °F 28% 30.00 in 10.0 mi Calm Calm - N/A   Clear
10:47 AM 77.0 °F 41.0 °F 28% 29.99 in 10.0 mi Calm Calm - N/A   Clear
11:47 AM 79.0 °F 41.0 °F 26% 29.98 in 10.0 mi Calm Calm - N/A   Clear
12:47 PM 81.0 °F 39.9 °F 23% 29.96 in 10.0 mi Calm Calm - N/A   Clear
1:47 PM 80.1 °F 48.9 °F 34% 29.94 in 10.0 mi Calm Calm - N/A   Clear
2:47 PM 79.0 °F 51.1 °F 38% 29.93 in 10.0 mi West 6.9 mph - N/A   Clear
3:47 PM 78.1 °F 53.1 °F 42% 29.92 in 10.0 mi West 6.9 mph - N/A   Clear
4:47 PM 75.0 °F 54.0 °F 48% 29.92 in 10.0 mi Calm Calm - N/A   Clear
5:47 PM 72.0 °F 54.0 °F 53% 29.92 in 10.0 mi West 4.6 mph - N/A   Clear
6:47 PM 68.0 °F 55.0 °F 63% 29.94 in 10.0 mi Calm Calm - N/A   Clear
7:47 PM 66.0 °F 55.9 °F 70% 29.95 in 10.0 mi Calm Calm - N/A   Clear
8:47 PM 64.9 °F 55.0 °F 70% 29.96 in 10.0 mi Calm Calm - N/A   Clear
9:47 PM 64.0 °F 57.0 °F 78% 29.97 in 10.0 mi Calm Calm - N/A   Clear
10:47 PM 64.0 °F 57.9 °F 80% 29.97 in 10.0 mi Calm Calm - N/A   Clear
11:47 PM 63.0 °F 57.0 °F 81% 29.96 in 10.0 mi Calm Calm - N/A   Clear